CW9927 Weather Reports


time (UTC)temp
C
wind
direction
speed
KPH
gust
KPH
rain 1hr
cm
rain 24hr
cm
rain mn
cm
humidity
%
barometer
mb
20260903195117 24 0.0 0.0 0.00 0.00 0.00 47 1014.4
20260903194117 24 0.0 0.0 0.00 0.00 0.00 50 1014.5
20260903193119 23 0.0 0.0 0.00 0.00 0.00 51 1014.6
20260903192137 23 0.0 0.0 0.00 0.00 0.00 52 1014.8
20260903191117 23 0.0 0.0 0.00 0.00 0.00 55 1015.0
20260903190217 22 0.0 0.0 0.00 0.00 0.00 58 1015.2
20260903185117 22 0.0 0.0 0.00 0.00 0.00 58 1015.5
20260903184117 22 0.0 0.0 0.00 0.00 0.00 59 1015.6
20260903183117 21 0.0 0.0 0.00 0.00 0.00 59 1015.7
20260903182117 21 0.0 0.0 0.00 0.00 0.00 60 1015.8
20260903181137 21 0.0 0.0 0.00 0.00 0.00 60 1015.9
20260903180117 20 0.0 0.0 0.00 0.00 0.00 64 1015.9
20260903175137 20 0.0 0.0 0.00 0.00 0.00 64 1015.9
20260903174117 20 0.0 0.0 0.00 0.00 0.00 66 1015.9
20260903173117 20 0.0 0.0 0.00 0.00 0.00 69 1016.0
20260903172137 18 0.0 0.0 0.00 0.00 0.00 73 1016.2
20260903171158 18 0.0 0.0 0.00 0.00 0.00 74 1016.3
20260903170134 17 0.0 0.0 0.00 0.00 0.00 76 1016.4
20260903165116 17 0.0 0.0 0.00 0.00 0.00 77 1016.5
20260903164136 16 0.0 0.0 0.00 0.00 0.00 78 1016.6
20260903163117 16 0.0 0.0 0.00 0.00 0.00 82 1016.6
20260903161116 15 0.0 0.0 0.00 0.00 0.00 83 1016.7
20260903160116 14 0.0 0.0 0.00 0.00 0.00 85 1016.6
20260903155116 13 0.0 0.0 0.00 0.00 0.00 88 1016.7
20260903154136 12 0.0 0.0 0.00 0.00 0.00 89 1016.8
20260903153116 12 0.0 0.0 0.00 0.00 0.00 90 1016.9
20260903152116 12 0.0 0.0 0.00 0.00 0.00 91 1016.8
20260903151116 11 0.0 0.0 0.00 0.00 0.00 92 1016.9
20260903150116 11 0.0 0.0 0.00 0.00 0.00 92 1016.8
20260903145136 11 0.0 0.0 0.00 0.00 0.00 92 1016.8
20260903144116 10 0.0 0.0 0.00 0.00 0.00 92 1016.8
20260903143116 10 0.0 0.0 0.00 0.00 0.00 92 1016.8
20260903142116 10 0.0 0.0 0.00 0.00 0.00 90 1016.7
20260903141116 10 0.0 0.0 0.00 0.00 0.00 90 1016.6
20260903140116 10 0.0 0.0 0.00 0.00 0.00 91 1016.4
20260903135116 10 0.0 0.0 0.00 0.00 0.00 90 1016.5
20260903134116 10 0.0 0.0 0.00 0.00 0.00 90 1016.4
20260903133116 10 0.0 0.0 0.00 0.00 0.00 90 1016.4
20260903132137 10 0.0 0.0 0.00 0.00 0.00 90 1016.4
20260903131156 10 0.0 0.0 0.00 0.00 0.00 91 1016.4
20260903125116 10 0.0 0.0 0.00 0.00 0.00 91 1016.4
20260903124116 10 0.0 0.0 0.00 0.00 0.00 91 1016.4
20260903123136 10 0.0 0.0 0.00 0.00 0.00 91 1016.4
20260903122116 10 0.0 0.0 0.00 0.00 0.00 90 1016.4
20260903121136 10 0.0 0.0 0.00 0.00 0.00 90 1016.5
20260903120116 10 0.0 0.0 0.00 0.00 0.00 90 1016.5
20260903115116 10 0.0 0.0 0.00 0.00 0.00 90 1016.5
20260903114136 10 0.0 0.0 0.00 0.00 0.00 90 1016.7
20260903113117 10 0.0 0.0 0.00 0.00 0.00 90 1016.7
20260903112116 10 0.0 0.0 0.00 0.00 0.00 89 1016.9
20260903111116 10 0.0 0.0 0.00 0.00 0.00 90 1017.0
20260903110116 11 0.0 0.0 0.00 0.00 0.00 89 1017.0
20260903105117 11 0.0 0.0 0.00 0.00 0.00 90 1016.9
20260903104153 11 0.0 0.0 0.00 0.00 0.00 90 1016.9
20260903103136 11 0.0 0.0 0.00 0.00 0.00 90 1017.0
20260903102116 11 0.0 0.0 0.00 0.00 0.00 89 1016.9
20260903101136 11 0.0 0.0 0.00 0.00 0.00 89 1016.9
20260903100116 11 0.0 0.0 0.00 0.00 0.00 89 1017.0
20260903095156 11 0.0 0.0 0.00 0.00 0.00 89 1017.0
20260903094136 11 0.0 0.0 0.00 0.00 0.00 89 1017.1
20260903093116 11 0.0 0.0 0.00 0.00 0.00 87 1017.2
20260903092116 11 0.0 0.0 0.00 0.00 0.00 88 1017.3
20260903091136 11 0.0 0.0 0.00 0.00 0.00 87 1017.3
20260903090116 11 0.0 0.0 0.00 0.00 0.00 87 1017.3
20260903085116 11 0.0 0.0 0.00 0.00 0.00 87 1017.3
20260903084117 12 0.0 0.0 0.00 0.00 0.00 88 1017.3
20260903083137 12 0.0 0.0 0.00 0.00 0.00 88 1017.3
20260903082119 12 0.0 0.0 0.00 0.00 0.00 88 1017.3
20260903081116 12 0.0 0.0 0.00 0.00 0.00 88 1017.4
20260903080116 12 0.0 0.0 0.00 0.00 0.00 87 1017.4
20260903075116 12 0.0 0.0 0.00 0.00 0.00 86 1017.4
20260903074116 12 0.0 0.0 0.00 0.00 0.00 86 1017.4
20260903073117 13 0.0 0.0 0.00 0.00 0.00 87 1017.3
20260903072116 13 0.0 0.0 0.00 0.00 0.00 86 1017.4
20260903071116 13 0.0 0.0 0.00 0.00 0.00 86 1017.3
20260903065137 13 0.0 0.0 0.00 0.00 0.00 86 1017.3
20260903064137 13 0.0 0.0 0.00 0.00 0.00 86 1017.3
20260903063117 13 0.0 0.0 0.00 0.00 0.00 86 1017.4
20260903062117 14 0.0 0.0 0.00 0.00 0.00 85 1017.4
20260903061117 14 0.0 0.0 0.00 0.00 0.00 85 1017.4
20260903060117 14 0.0 0.0 0.00 0.00 0.00 85 1017.5
20260903055118 14 0.0 0.0 0.00 0.00 0.00 84 1017.5
20260903054117 15 0.0 0.0 0.00 0.00 0.00 84 1017.6
20260903053117 15 0.0 0.0 0.00 0.00 0.00 83 1017.6
20260903052119 15 0.0 0.0 0.00 0.00 0.00 83 1017.6
20260903051139 15 0.0 0.0 0.00 0.00 0.00 82 1017.6
20260903050138 15 0.0 0.0 0.00 0.00 0.00 82 1017.7
20260903045117 15 0.0 0.0 0.00 0.00 0.00 81 1017.6
20260903044117 15 0.0 0.0 0.00 0.00 0.00 80 1017.4
20260903043118 15 0.0 0.0 0.00 0.00 0.00 79 1017.4
20260903042117 15 0.0 0.0 0.00 0.00 0.00 77 1017.3
20260903041138 16 0.0 0.0 0.00 0.00 0.00 77 1017.2
20260903040117 16 0.0 0.0 0.00 0.00 0.00 77 1017.2
20260903035118 16 0.0 0.0 0.00 0.00 0.00 77 1016.9
20260903034118 16 0.0 0.0 0.00 0.00 0.00 76 1016.8
20260903033117 16 0.0 0.0 0.00 0.00 0.00 76 1016.9
20260903032117 17 0.0 0.0 0.00 0.00 0.00 76 1016.7
20260903031118 17 0.0 0.0 0.00 0.00 0.00 75 1016.6
20260903030118 17 0.0 0.0 0.00 0.00 0.00 75 1016.5
20260903025119 17 0.0 0.0 0.00 0.00 0.00 74 1016.3
20260903024117 18 0.0 0.0 0.00 0.00 0.00 73 1016.4
20260903023117 18 0.0 0.0 0.00 0.00 0.00 72 1016.4
20260903022117 19 0.0 0.0 0.00 0.00 0.00 71 1016.4
20260903021117 20 0.0 0.0 0.00 0.00 0.00 70 1016.4
20260903020117 20 0.0 0.0 0.00 0.00 0.00 69 1016.3
20260903015115 20 0.0 0.0 0.00 0.00 0.00 69 1016.5
20260903014117 21 0.0 0.0 0.00 0.00 0.00 68 1016.6
20260903013117 21 0.0 0.0 0.00 0.00 0.00 67 1016.6
20260903012117 21 0.0 0.0 0.00 0.00 0.00 67 1016.5
20260903011117 21 0.0 0.0 0.00 0.00 0.00 66 1016.6
20260903010240 22 0.0 0.0 0.00 0.00 0.00 66 1016.7
20260903005117 22 0.0 0.0 0.00 0.00 0.00 65 1016.7
20260903004117 22 0.0 0.0 0.00 0.00 0.00 63 1016.6
20260903003117 22 0.0 3.2 0.00 0.00 0.00 62 1016.6
20260903002117 23 270 9.7 19.3 0.00 0.00 0.00 61 1016.4
20260903001117 23 248 4.8 12.9 0.00 0.00 0.00 60 1016.4
20260903000117 23 0.0 0.0 0.00 0.00 0.00 60 1016.4
20260902235117 23 248 11.3 19.3 0.00 0.00 0.00 57 1016.4
20260902234117 23 0.0 0.0 0.00 0.00 0.00 58 1016.4
20260902233117 24 0.0 0.0 0.00 0.00 0.00 57 1016.5
20260902232137 25 248 3.2 8.0 0.00 0.00 0.00 54 1016.5
20260902231117 25 0.0 0.0 0.00 0.00 0.00 52 1016.6
20260902230117 25 0.0 0.0 0.00 0.00 0.00 53 1016.7
20260902225137 25 0.0 0.0 0.00 0.00 0.00 53 1016.8
20260902224158 25 0.0 0.0 0.00 0.00 0.00 52 1016.9
20260902223137 25 0.0 0.0 0.00 0.00 0.00 51 1017.0
20260902222116 25 0.0 0.0 0.00 0.00 0.00 52 1017.0
20260902221138 25 0.0 0.0 0.00 0.00 0.00 53 1017.1
20260902220118 25 0.0 0.0 0.00 0.00 0.00 54 1017.1
20260902215116 25 0.0 0.0 0.00 0.00 0.00 55 1017.2
20260902214116 25 0.0 0.0 0.00 0.00 0.00 54 1017.3
20260902213116 25 0.0 1.6 0.00 0.00 0.00 54 1017.5
20260902212117 25 0.0 0.0 0.00 0.00 0.00 55 1017.5
20260902211136 25 0.0 0.0 0.00 0.00 0.00 54 1017.7
20260902210116 24 0.0 1.6 0.00 0.00 0.00 57 1017.6
20260902205157 24 0.0 0.0 0.00 0.00 0.00 55 1017.8
20260902204116 25 0.0 0.0 0.00 0.00 0.00 54 1017.8
20260902203157 24 0.0 0.0 0.00 0.00 0.00 57 1017.9
20260902202116 24 0.0 0.0 0.00 0.00 0.00 56 1017.9
20260902201137 24 0.0 0.0 0.00 0.00 0.00 57 1017.9
20260902200116 23 0.0 0.0 0.00 0.00 0.00 57 1018.1